CW8443 Tokyo JP current weather conditions

sailwx.info

Wind from 240

Air temperature 23.9° C
Dewpoint 20.0° C

Last reported at 2020-Aug-08 16:48 UTC.
Time now 2020-Aug-08 17:46 UTC

Location: N 35°44' E 139°24'.
View on Google Maps.

See reports from other nearby stations

  
Tides and Currents Weather Stations Pressure Air Temp Water Temp Dewpoint Dewpoint Depression Visibility Wind Speed Wind Dir Waves Ship Positions
date/time (UTC)wind fromknots sea level pressurealtimeterstation pressurevisibilityair tempwater tempwave heightnotes
2020-Aug-08 16:48 240 23.9
2020-Aug-08 16:38 240 23.9
2020-Aug-08 16:32 240 23.9
2020-Aug-08 16:18 214 23.9
2020-Aug-08 16:07 213 23.9
2020-Aug-08 15:53 200 23.9
2020-Aug-08 15:48 207 23.9
2020-Aug-08 15:37 212 24.4
2020-Aug-08 15:27 212 24.4
2020-Aug-08 15:22 212 24.4
2020-Aug-08 15:18 212 24.4
2020-Aug-08 15:02 209 24.4
2020-Aug-08 14:13 219 24.4
2020-Aug-08 13:53 254 24.4
2020-Aug-08 12:58 245 0 25.0
2020-Aug-08 12:37 234 0 25.0
2020-Aug-08 12:28 220 1 25.0
2020-Aug-08 12:22 251 1 25.6
2020-Aug-08 12:18 240 1 25.6
2020-Aug-08 12:07 257 0 25.6
2020-Aug-08 12:03 241 1 25.6
2020-Aug-08 11:48 217 0 25.6
2020-Aug-08 11:22 224 2 26.1
2020-Aug-08 11:18 196 2 26.1
2020-Aug-08 11:13 196 1 26.1
2020-Aug-08 11:03 234 1 26.7
2020-Aug-08 10:52 212 1 26.7
2020-Aug-08 10:43 212 1 26.7
2020-Aug-08 10:37 236 1 27.2
2020-Aug-08 10:33 237 1 27.2
2020-Aug-08 10:28 204 1 27.2
2020-Aug-08 09:58 197 1 27.8
2020-Aug-08 09:53 209 1 27.8
2020-Aug-08 09:47 230 1 27.8
2020-Aug-08 09:38 223 1 28.3
2020-Aug-08 09:23 226 1 28.3
2020-Aug-08 09:18 224 1 28.3
2020-Aug-08 09:12 228 1 28.3
2020-Aug-08 09:07 227 1 28.9
2020-Aug-08 08:58 230 2 28.9
2020-Aug-08 08:52 212 2 28.9
2020-Aug-08 08:48 220 1 29.4
2020-Aug-08 08:38 227 1 30.0
2020-Aug-08 08:28 234 2 30.0
2020-Aug-08 08:23 267 3 30.0
2020-Aug-08 08:13 247 1 30.6
2020-Aug-08 08:08 223 2 30.6
2020-Aug-08 08:03 248 2 30.6
2020-Aug-08 07:43 228 3 31.1
2020-Aug-08 07:27 213 3 31.1
2020-Aug-08 07:13 209 3 31.7
2020-Aug-08 06:53 220 3 32.2
2020-Aug-08 06:48 236 2 32.8
2020-Aug-08 06:42 206 2 32.8
2020-Aug-08 06:27 220 1 33.3
2020-Aug-08 06:22 250 1 33.3
2020-Aug-08 06:12 284 1 33.9
2020-Aug-08 06:07 289 2 33.9
2020-Aug-08 06:04 284 3 33.9
2020-Aug-08 05:57 315 2 33.9
2020-Aug-08 05:52 351 2 33.3
2020-Aug-08 05:34 281 1 32.8
2020-Aug-08 05:23 275 3 32.8
2020-Aug-08 04:43 348 0 33.3
2020-Aug-08 04:28 332 2 33.3
2020-Aug-08 04:02 334 2 32.8
2020-Aug-08 03:53 238 0 32.8
2020-Aug-08 03:43 236 1 32.2
2020-Aug-08 03:22 238 1 32.2
2020-Aug-08 03:03 292 0 32.2
2020-Aug-08 02:58 066 0 32.2
2020-Aug-08 02:52 007 1 32.2
2020-Aug-08 02:37 260 32.2
2020-Aug-08 02:27 252 2 31.7
2020-Aug-08 02:22 292 2 31.7
2020-Aug-08 02:18 258 2 31.7
2020-Aug-08 02:13 302 1 31.1
2020-Aug-08 02:03 204 0 30.6
2020-Aug-08 01:58 209 0 30.0
2020-Aug-08 01:47 219 0 30.0
2020-Aug-08 01:43 240 0 30.0
2020-Aug-08 01:37 228 1 30.0
2020-Aug-08 01:22 221 0 30.0
2020-Aug-08 01:18 195 0 30.0
2020-Aug-08 00:53 288 0 30.6
2020-Aug-08 00:38 267 0 30.6
2020-Aug-08 00:33 268 0 30.0
2020-Aug-08 00:08 202 0 29.4
2020-Aug-07 23:57 200 28.9
2020-Aug-07 23:54 200 0 28.9
2020-Aug-07 23:38 192 27.8
2020-Aug-07 23:33 190 0 27.8
2020-Aug-07 23:28 180 27.2
2020-Aug-07 23:17 217 27.2
2020-Aug-07 23:12 244 27.2
2020-Aug-07 23:03 244 26.7
2020-Aug-07 22:58 251 26.7
2020-Aug-07 22:53 251 26.7
2020-Aug-07 22:48 255 26.7
2020-Aug-07 22:38 278 26.7
2020-Aug-07 22:23 278 26.7
2020-Aug-07 22:18 279 0 26.1
2020-Aug-07 22:13 279 0 26.1
2020-Aug-07 22:08 281 0 26.1
2020-Aug-07 22:03 275 0 26.1
2020-Aug-07 21:47 276 2 26.1
2020-Aug-07 21:42 276 1 26.1
2020-Aug-07 21:27 286 0 25.6
2020-Aug-07 21:23 244 0 25.6
2020-Aug-07 21:17 240 0 25.6
2020-Aug-07 21:07 237 0 25.6
2020-Aug-07 20:53 204 26.1
2020-Aug-07 20:37 221 26.1
2020-Aug-07 20:33 209 26.1
2020-Aug-07 20:23 207 26.1
2020-Aug-07 20:18 207 26.1
2020-Aug-07 19:57 221 26.1
2020-Aug-07 19:52 221 26.1
2020-Aug-07 19:47 221 26.1
2020-Aug-07 19:33 240 26.1
2020-Aug-07 19:28 252 26.1
2020-Aug-07 18:43 271 0 26.1
2020-Aug-07 18:33 236 26.1
2020-Aug-07 18:13 202 0 26.7
2020-Aug-07 18:07 197 0 26.7
2020-Aug-07 17:58 200 0 26.7
2020-Aug-07 17:53 209 0 26.7
2020-Aug-07 17:18 200 0 26.7
2020-Aug-07 17:08 193 0 26.7
2020-Aug-07 16:58 196 0 26.7
2020-Aug-07 16:52 197 0 26.7
2020-Aug-07 16:48 196 0 26.7
2020-Aug-07 16:43 212 0 26.7
2020-Aug-07 16:38 202 0 26.7
2020-Aug-07 16:14 199 0 27.2
2020-Aug-07 15:59 203 1 27.2
2020-Aug-07 15:47 199 1 27.2
2020-Aug-07 15:38 196 0 27.2
2020-Aug-07 15:28 206 1 27.2
2020-Aug-07 15:18 214 1 27.8
2020-Aug-07 15:13 234 0 27.8
2020-Aug-07 14:38 226 2 27.8
2020-Aug-07 14:28 209 1 28.3
2020-Aug-07 14:22 203 2 28.3
2020-Aug-07 13:53 195 2 29.4
2020-Aug-07 13:48 189 1 30.0
2020-Aug-07 13:28 333 30.0
2020-Aug-07 13:07 333 30.6
2020-Aug-07 12:53 333 30.6
2020-Aug-07 12:44 333 30.6
2020-Aug-07 12:17 333 30.6
2020-Aug-07 11:48 330 1 31.1
2020-Aug-07 11:34 336 1 31.1
2020-Aug-07 11:23 312 0 31.7
2020-Aug-07 11:18 302 0 31.7
2020-Aug-07 11:13 302 31.7
2020-Aug-07 11:09 302 31.7
2020-Aug-07 10:58 302 31.7
2020-Aug-07 10:53 302 31.7
2020-Aug-07 10:48 302 31.7
2020-Aug-07 10:28 303 0 32.2
2020-Aug-07 10:18 347 0 32.2
2020-Aug-07 10:13 347 1 32.2
2020-Aug-07 09:22 341 1 32.8
2020-Aug-07 08:58 343 3 33.9
2020-Aug-07 08:52 357 3 33.9
2020-Aug-07 08:23 065 1 33.9
2020-Aug-07 08:18 010 1 33.9
2020-Aug-07 07:47 334 1 35.0
2020-Aug-07 07:38 360 2 35.0
2020-Aug-07 07:19 018 2 34.4
2020-Aug-07 06:52 004 2 35.0
2020-Aug-07 06:48 008 1 34.4
2020-Aug-07 06:38 069 2 34.4
2020-Aug-07 06:28 015 2 35.0
2020-Aug-07 05:52 060 3 35.0
2020-Aug-07 05:49 106 2 35.0
2020-Aug-07 05:22 065 1 35.6
2020-Aug-07 04:44 041 2 35.6
2020-Aug-07 04:38 028 3 35.6
2020-Aug-07 04:13 106 1 35.6
2020-Aug-07 04:08 128 2 35.6
2020-Aug-07 03:48 255 0 36.7
2020-Aug-07 03:27 076 1 35.6
2020-Aug-07 03:13 110 1 35.0
2020-Aug-07 02:37 042 2 35.0
2020-Aug-07 02:27 028 2 35.0
2020-Aug-07 02:22 341 1 35.0
2020-Aug-07 01:42 015 2 33.9
2020-Aug-07 01:23 070 3 32.8
2020-Aug-07 00:53 124 4 31.7
2020-Aug-07 00:38 073 3 31.7
2020-Aug-07 00:33 077 3 31.7
2020-Aug-07 00:28 354 3 31.1
2020-Aug-07 00:17 039 2 31.1
2020-Aug-06 23:37 077 0 29.4
2020-Aug-06 23:33 034 29.4
2020-Aug-06 23:27 339 29.4
2020-Aug-06 23:07 336 28.9
2020-Aug-06 22:53 336 0 28.3
2020-Aug-06 22:47 337 27.2
2020-Aug-06 22:43 100 27.2
2020-Aug-06 22:34 100 0 26.7
2020-Aug-06 22:07 107 0 26.1
2020-Aug-06 21:53 220 26.1
2020-Aug-06 21:48 221 26.1
2020-Aug-06 21:43 221 26.1
2020-Aug-06 21:33 220 26.1
2020-Aug-06 21:28 220 25.6
2020-Aug-06 21:23 220 25.6
2020-Aug-06 21:18 220 25.6
2020-Aug-06 21:13 220 25.6
2020-Aug-06 21:03 220 25.6
2020-Aug-06 20:48 221 25.0
2020-Aug-06 20:43 221 25.0
2020-Aug-06 20:22 188 1 25.0
2020-Aug-06 20:17 179 1 24.4
2020-Aug-06 20:13 179 0 24.4
2020-Aug-06 19:52 053 24.4
2020-Aug-06 19:47 053 25.0
2020-Aug-06 19:27 052 25.0
2020-Aug-06 19:23 052 25.0
2020-Aug-06 19:13 052 25.0
2020-Aug-06 19:08 052 25.0
2020-Aug-06 19:02 052 25.0
2020-Aug-06 17:48 120 26.1
2020-Aug-06 17:38 120 26.1
2020-Aug-06 17:33 120 26.1
2020-Aug-06 17:08 120 26.1
2020-Aug-06 17:03 120 26.1